Tracking 19792 objects as of 16-Jul-2019
HD Live streaming from Space Station
objects crossing your sky now

NOAA 16 DEB

Track NOAA 16 DEB now!
10-day predictions


NORAD ID: 41539
Int'l Code: 2000-055NP
Perigee: 815.4 km
Apogee: 853.6 km
Inclination: 98.8 °
Period: 101.5 minutes
Semi major axis: 7205 km
RCS: Unknown
Launch date: September 21, 2000
Source: United States (US)
Launch site: AIR FORCE WESTERN TEST RANGE (AFWTR)

Note: This is SATELLITE DEBRIS
aabbcc
Your satellite tracking list
Your tracking list is empty




NASA's NSSDC Master Catalog

Two Line Element Set (TLE):
1 41539U 00055NP  19196.46542488  .00000675  00000-0  34088-3 0  9993
2 41539  98.8242 280.0470 0026537 261.0462  98.7709 14.19414308177541
Source of the keplerian elements: AFSPC